This is the latest recevied weather packets stored in our database for station/object KE5WTH-14. If no packets are shown the sender has not sent any weather packets the latest 10 day(s).
| Time | Temp. | Humidity | Pressure | Rain* | Wind** | Luminosity | Snow |
|---|---|---|---|---|---|---|---|
| 1778178248 | 21.67° C | 50% | 1017.4 hPa | 0 mm | - | 1027 W/m² | - |
| 1778178186 | 21.67° C | 51% | 1017.5 hPa | 0 mm | - | 1027 W/m² | - |
| 1778178125 | 21.67° C | 51% | 1017.5 hPa | 0 mm | - | 1025 W/m² | - |
| 1778178067 | 21.67° C | 50% | 1017.5 hPa | 0 mm | - | 1022 W/m² | - |
| 1778178005 | 21.67° C | 50% | 1017.6 hPa | 0 mm | - | 1022 W/m² | - |
| 1778177947 | 21.67° C | 50% | 1017.6 hPa | 0 mm | - | 1023 W/m² | - |
| 1778177887 | 21.67° C | 50% | 1017.6 hPa | 0 mm | - | 1018 W/m² | - |
| 1778177826 | 21.67° C | 50% | 1017.6 hPa | 0 mm | - | 1018 W/m² | - |
| 1778177765 | 21.67° C | 52% | 1017.7 hPa | 0 mm | - | 1018 W/m² | - |
| 1778177706 | 21.11° C | 52% | 1017.7 hPa | 0 mm | - | 1025 W/m² | - |
| 1778177646 | 21.11° C | 51% | 1017.6 hPa | 0 mm | - | 1025 W/m² | - |
| 1778177585 | 21.11° C | 51% | 1017.7 hPa | 0 mm | - | 1041 W/m² | - |
| 1778177525 | 21.11° C | 51% | 1017.7 hPa | 0 mm | - | 1020 W/m² | - |
| 1778177466 | 21.11° C | 51% | 1017.7 hPa | 0 mm | - | 629 W/m² | - |
| 1778177405 | 21.11° C | 51% | 1017.7 hPa | 0 mm | - | 950 W/m² | - |
| 1778177345 | 21.11° C | 51% | 1017.7 hPa | 0 mm | - | 1009 W/m² | - |
| 1778177286 | 21.11° C | 51% | 1017.7 hPa | 0 mm | - | 1009 W/m² | - |
| 1778177225 | 21.11° C | 51% | 1017.7 hPa | 0 mm | - | 1009 W/m² | - |
| 1778177163 | 21.11° C | 53% | 1017.8 hPa | 0 mm | - | 1009 W/m² | - |
| 1778177100 | 21.11° C | 50% | 1017.7 hPa | 0 mm | - | 1009 W/m² | - |
| 1778177041 | 21.11° C | 51% | 1017.8 hPa | 0 mm | - | 1009 W/m² | - |
| 1778176978 | 20.56° C | 50% | 1017.8 hPa | 0 mm | - | 1006 W/m² | - |
| 1778176916 | 20.56° C | 51% | 1017.8 hPa | 0 mm | - | 1006 W/m² | - |
| 1778176856 | 20.56° C | 50% | 1018 hPa | 0 mm | - | 1004 W/m² | - |
| 1778176795 | 20.56° C | 51% | 1018.1 hPa | 0 mm | - | 1002 W/m² | - |
* Rain latest hour (hover to see other rain measurements)
** Current wind speed in m/s (hover to see current wind gust speed)